AFR360 VMMC-RJBB

Flight info

Callsign AFR360
Flight time 2h 59m
Altitude 35000
Route CONGA V631 ENVAR M750 MADOG Y53 NIXOV
Aircraft A320/M-SDE3FGHIRWY/LB1

Departure

Time 2026-04-25 12:05
Airport Macau International Airport (VMMC)

Arrival

Time 2026-04-25 15:04
Airport Kansai International Airport (RJBB)
Time Latitude Longitude Altitude Speed Heading
2026-04-25 11:19 22.15804 113.57587 29 ft 0 kts 292°
2026-04-25 11:29 22.15804 113.57588 1 ft 0 kts 292°
2026-04-25 11:52 22.15803 113.57591 29 ft 3 kts 292°
2026-04-25 11:52 22.15794 113.57618 29 ft 4 kts 286°
2026-04-25 11:52 22.15787 113.57646 29 ft 4 kts 275°
2026-04-25 11:52 22.15789 113.57674 29 ft 4 kts 234°
2026-04-25 11:53 22.15799 113.57683 29 ft 1 kts 198°
2026-04-25 11:53 22.15801 113.57684 29 ft 0 kts 198°
2026-04-25 11:56 22.15789 113.57680 29 ft 7 kts 198°
2026-04-25 11:56 22.15741 113.57658 29 ft 7 kts 206°
2026-04-25 11:56 22.15715 113.57643 29 ft 6 kts 209°
2026-04-25 11:57 22.15682 113.57622 29 ft 6 kts 210°
2026-04-25 11:57 22.15635 113.57604 29 ft 11 kts 184°
2026-04-25 11:57 22.15583 113.57657 29 ft 11 kts 124°
2026-04-25 11:57 22.15536 113.57730 29 ft 12 kts 124°
2026-04-25 11:58 22.15485 113.57811 29 ft 14 kts 124°
2026-04-25 11:58 22.15419 113.57917 29 ft 18 kts 124°
2026-04-25 11:58 22.15347 113.58034 29 ft 19 kts 123°
2026-04-25 11:58 22.15272 113.58158 28 ft 20 kts 123°
2026-04-25 11:59 22.15195 113.58282 28 ft 20 kts 124°
2026-04-25 11:59 22.15116 113.58410 28 ft 21 kts 123°
2026-04-25 11:59 22.15035 113.58540 28 ft 21 kts 123°
2026-04-25 12:00 22.14872 113.58811 28 ft 22 kts 123°
2026-04-25 12:00 22.14789 113.58944 28 ft 21 kts 125°
2026-04-25 12:00 22.14639 113.59068 28 ft 14 kts 160°
2026-04-25 12:01 22.14541 113.59105 28 ft 15 kts 161°
2026-04-25 12:01 22.14439 113.59143 28 ft 16 kts 161°
2026-04-25 12:01 22.14326 113.59184 28 ft 17 kts 161°
2026-04-25 12:01 22.14210 113.59228 28 ft 18 kts 160°
2026-04-25 12:02 22.13961 113.59321 28 ft 20 kts 162°
2026-04-25 12:02 22.13828 113.59368 28 ft 21 kts 161°
2026-04-25 12:02 22.13688 113.59422 28 ft 21 kts 160°
2026-04-25 12:03 22.13585 113.59462 28 ft 11 kts 157°
2026-04-25 12:03 22.13528 113.59521 28 ft 12 kts 125°
2026-04-25 12:03 22.13496 113.59604 28 ft 13 kts 90°
2026-04-25 12:03 22.13557 113.59656 28 ft 12 kts 349°
2026-04-25 12:04 22.13628 113.59628 28 ft 10 kts 340°
2026-04-25 12:04 22.13692 113.59603 28 ft 15 kts 340°
2026-04-25 12:04 22.13988 113.59495 31 ft 80 kts 342°
2026-04-25 12:04 22.14718 113.59230 28 ft 138 kts 342°
2026-04-25 12:05 22.15780 113.58849 35 ft 183 kts 341°
2026-04-25 12:05 22.16981 113.58394 676 ft 178 kts 342°
2026-04-25 12:05 22.18186 113.58217 1307 ft 176 kts 14°
2026-04-25 12:05 22.19290 113.58765 1951 ft 172 kts 31°
2026-04-25 12:06 22.20334 113.59415 2320 ft 185 kts 31°
2026-04-25 12:06 22.21509 113.60160 2570 ft 205 kts 31°
2026-04-25 12:06 22.22758 113.60947 3035 ft 213 kts 31°
2026-04-25 12:06 22.24045 113.61754 3668 ft 215 kts 30°
2026-04-25 12:07 22.25359 113.62576 4302 ft 218 kts 30°
2026-04-25 12:07 22.26679 113.63398 4899 ft 222 kts 29°
2026-04-25 12:07 22.28027 113.64243 5502 ft 225 kts 32°
2026-04-25 12:07 22.29309 113.65294 5880 ft 242 kts 38°
2026-04-25 12:08 22.30696 113.66491 6140 ft 266 kts 38°
2026-04-25 12:08 22.32178 113.67771 6631 ft 277 kts 38°
2026-04-25 12:08 22.33592 113.69213 7282 ft 282 kts 52°
2026-04-25 12:08 22.34516 113.71094 7960 ft 287 kts 72°
2026-04-25 12:09 22.34965 113.73208 8650 ft 290 kts 77°
2026-04-25 12:09 22.35373 113.75334 9337 ft 294 kts 77°
2026-04-25 12:09 22.35795 113.77527 10010 ft 297 kts 77°
2026-04-25 12:09 22.36218 113.79712 10602 ft 301 kts 76°
2026-04-25 12:10 22.36664 113.81994 10812 ft 321 kts 76°
2026-04-25 12:10 22.37133 113.84430 10936 ft 342 kts 79°
2026-04-25 12:10 22.37237 113.87037 11336 ft 354 kts 94°
2026-04-25 12:10 22.36714 113.89615 11859 ft 361 kts 109°
2026-04-25 12:11 22.35558 113.92050 12406 ft 367 kts 123°
2026-04-25 12:11 22.34106 113.94367 12979 ft 371 kts 123°
2026-04-25 12:11 22.32641 113.96657 13532 ft 376 kts 124°
2026-04-25 12:11 22.31139 113.98978 14051 ft 380 kts 124°
2026-04-25 12:12 22.29626 114.01312 14546 ft 383 kts 124°
2026-04-25 12:12 22.28590 114.02915 14885 ft 386 kts 124°
2026-04-25 12:12 22.26553 114.06079 15532 ft 390 kts 124°
2026-04-25 12:12 22.24999 114.08502 16020 ft 394 kts 125°
2026-04-25 12:13 22.23440 114.10934 16505 ft 397 kts 125°
2026-04-25 12:13 22.21852 114.13411 16993 ft 400 kts 125°
2026-04-25 12:13 22.20248 114.15911 17476 ft 403 kts 126°
2026-04-25 12:13 22.18665 114.18376 17954 ft 407 kts 126°
2026-04-25 12:14 22.17050 114.20891 18417 ft 410 kts 126°
2026-04-25 12:14 22.15417 114.23434 18832 ft 413 kts 126°
2026-04-25 12:14 22.13780 114.25978 19247 ft 416 kts 126°
2026-04-25 12:14 22.12096 114.28595 19683 ft 419 kts 126°
2026-04-25 12:15 22.10452 114.31147 20098 ft 422 kts 127°
2026-04-25 12:15 22.08743 114.33797 20534 ft 425 kts 127°
2026-04-25 12:15 22.07081 114.36375 20947 ft 428 kts 127°
2026-04-25 12:15 22.05386 114.39030 21367 ft 431 kts 127°
2026-04-25 12:16 22.03700 114.41706 21786 ft 434 kts 126°
2026-04-25 12:16 22.01998 114.44427 22198 ft 437 kts 126°
2026-04-25 12:16 22.00294 114.47155 22613 ft 440 kts 127°
2026-04-25 12:16 21.98587 114.49877 23017 ft 443 kts 127°
2026-04-25 12:17 21.96818 114.52689 23403 ft 446 kts 127°
2026-04-25 12:17 21.95063 114.55394 23751 ft 448 kts 129°
2026-04-25 12:17 21.93208 114.58092 24049 ft 450 kts 130°
2026-04-25 12:17 21.91300 114.60765 24344 ft 453 kts 131°
2026-04-25 12:18 21.89320 114.63493 24642 ft 456 kts 131°
2026-04-25 12:18 21.87385 114.66156 24926 ft 458 kts 131°
2026-04-25 12:18 21.85426 114.68876 25207 ft 461 kts 131°
2026-04-25 12:18 21.83441 114.71665 25484 ft 464 kts 131°
2026-04-25 12:19 21.80191 114.76286 25940 ft 469 kts 130°
2026-04-25 12:19 21.77714 114.80118 26298 ft 476 kts 120°
2026-04-25 12:19 21.76553 114.83448 26555 ft 483 kts 103°
2026-04-25 12:20 21.76248 114.87117 26799 ft 486 kts 86°
2026-04-25 12:20 21.76559 114.90682 27040 ft 489 kts 83°
2026-04-25 12:20 21.76921 114.94400 27301 ft 492 kts 83°
2026-04-25 12:20 21.77273 114.98002 27520 ft 494 kts 83°
2026-04-25 12:21 21.77628 115.01687 27773 ft 497 kts 83°
2026-04-25 12:21 21.77982 115.05391 28019 ft 500 kts 83°
2026-04-25 12:21 21.78341 115.09193 28262 ft 502 kts 83°
2026-04-25 12:21 21.78688 115.12889 28495 ft 505 kts 83°
2026-04-25 12:22 21.79036 115.16637 28721 ft 507 kts 83°
2026-04-25 12:22 21.79388 115.20437 28947 ft 510 kts 83°
2026-04-25 12:22 21.79742 115.24245 29166 ft 512 kts 83°
2026-04-25 12:22 21.80097 115.28053 29380 ft 515 kts 83°
2026-04-25 12:23 21.80454 115.31907 29595 ft 517 kts 83°
2026-04-25 12:23 21.80808 115.35738 29798 ft 519 kts 83°
2026-04-25 12:23 21.81167 115.39612 29989 ft 521 kts 83°
2026-04-25 12:23 21.81526 115.43510 30192 ft 523 kts 84°
2026-04-25 12:24 21.81886 115.47434 30348 ft 525 kts 84°
2026-04-25 12:24 21.82244 115.51350 30532 ft 526 kts 84°
2026-04-25 12:24 21.82598 115.55234 30773 ft 526 kts 84°
2026-04-25 12:24 21.82954 115.59175 31005 ft 526 kts 84°
2026-04-25 12:25 21.83308 115.63099 31230 ft 527 kts 84°
2026-04-25 12:25 21.83664 115.67002 31451 ft 527 kts 84°
2026-04-25 12:25 21.84020 115.70937 31678 ft 527 kts 84°
2026-04-25 12:25 21.84377 115.74891 31916 ft 528 kts 84°
2026-04-25 12:26 21.84732 115.78798 32137 ft 528 kts 84°
2026-04-25 12:26 21.85085 115.82726 32367 ft 528 kts 84°
2026-04-25 12:26 21.85438 115.86691 32591 ft 528 kts 84°
2026-04-25 12:26 21.85782 115.90603 32811 ft 529 kts 84°
2026-04-25 12:27 21.86128 115.94560 32996 ft 530 kts 84°
2026-04-25 12:27 21.86811 116.02326 33040 ft 520 kts 84°
2026-04-25 12:28 21.87491 116.10085 33044 ft 519 kts 84°
2026-04-25 12:28 21.88178 116.17818 33041 ft 519 kts 84°
2026-04-25 12:29 21.88847 116.25526 33038 ft 519 kts 84°
2026-04-25 12:29 21.89513 116.33251 33043 ft 519 kts 84°
2026-04-25 12:30 21.90069 116.39711 33040 ft 519 kts 84°
2026-04-25 12:30 21.90843 116.48715 33036 ft 519 kts 84°
2026-04-25 12:31 21.91503 116.56504 33041 ft 519 kts 84°
2026-04-25 12:31 21.92144 116.64184 33045 ft 519 kts 84°
2026-04-25 12:32 21.92793 116.71902 33040 ft 519 kts 84°
2026-04-25 12:32 21.93455 116.79718 33043 ft 519 kts 84°
2026-04-25 12:33 21.94093 116.87414 33045 ft 519 kts 85°
2026-04-25 12:33 21.94737 116.95153 33047 ft 519 kts 85°
2026-04-25 12:34 21.95373 117.02873 33040 ft 519 kts 85°
2026-04-25 12:34 21.96001 117.10634 33039 ft 519 kts 85°
2026-04-25 12:35 21.96627 117.18374 33037 ft 519 kts 85°
2026-04-25 12:35 21.97255 117.26109 33033 ft 519 kts 85°
2026-04-25 12:36 21.97874 117.33879 33035 ft 519 kts 85°
2026-04-25 12:36 21.98494 117.41636 33035 ft 519 kts 85°
2026-04-25 12:37 21.99690 117.49266 33036 ft 517 kts 70°
2026-04-25 12:37 22.02699 117.56206 33034 ft 510 kts 54°
2026-04-25 12:38 22.06422 117.62749 33033 ft 511 kts 54°
2026-04-25 12:38 22.10103 117.69248 33036 ft 511 kts 54°
2026-04-25 12:39 22.13810 117.75796 33038 ft 511 kts 54°
2026-04-25 12:39 22.17538 117.82387 33039 ft 512 kts 54°
2026-04-25 12:40 22.21217 117.88914 33038 ft 512 kts 54°
2026-04-25 12:40 22.24925 117.95476 33039 ft 512 kts 54°
2026-04-25 12:41 22.28635 118.02033 33044 ft 512 kts 54°
2026-04-25 12:41 22.31796 118.07492 33043 ft 512 kts 53°
2026-04-25 12:42 22.35611 118.13959 33041 ft 512 kts 53°
2026-04-25 12:42 22.39433 118.20455 33048 ft 512 kts 54°
2026-04-25 12:43 22.43209 118.27009 33051 ft 513 kts 54°
2026-04-25 12:43 22.48750 118.36889 33046 ft 513 kts 55°
2026-04-25 12:44 22.52453 118.43481 33049 ft 513 kts 55°
2026-04-25 12:45 22.58040 118.53357 33049 ft 513 kts 54°
2026-04-25 12:45 22.63663 118.63227 33053 ft 513 kts 54°
2026-04-25 12:46 22.67405 118.69773 33054 ft 513 kts 55°
2026-04-25 12:46 22.71166 118.76390 33060 ft 513 kts 55°
2026-04-25 12:47 22.74899 118.82983 33056 ft 513 kts 55°
2026-04-25 12:47 22.78627 118.89558 33063 ft 513 kts 55°
2026-04-25 12:48 22.82370 118.96162 33046 ft 513 kts 55°
2026-04-25 12:48 22.86075 119.02707 33043 ft 513 kts 55°
2026-04-25 12:49 22.89799 119.09311 33047 ft 513 kts 55°
2026-04-25 12:49 22.93530 119.15940 33052 ft 513 kts 56°
2026-04-25 12:50 22.97237 119.22523 33055 ft 513 kts 56°
2026-04-25 12:50 23.00970 119.29148 33057 ft 513 kts 56°
2026-04-25 12:51 23.04669 119.35732 33056 ft 512 kts 56°
2026-04-25 12:51 23.08399 119.42392 33053 ft 512 kts 56°
2026-04-25 12:52 23.12079 119.48954 33047 ft 512 kts 56°
2026-04-25 12:52 23.15799 119.55595 33043 ft 512 kts 56°
2026-04-25 12:53 23.19481 119.62187 33045 ft 512 kts 56°
2026-04-25 12:53 23.23180 119.68813 33049 ft 513 kts 56°
2026-04-25 12:54 23.26901 119.75489 33057 ft 512 kts 56°
2026-04-25 12:54 23.30572 119.82066 33058 ft 512 kts 56°
2026-04-25 12:55 23.33648 119.87605 33057 ft 512 kts 57°
2026-04-25 12:55 23.38561 119.94767 33055 ft 504 kts 39°
2026-04-25 12:56 23.43705 120.00036 33051 ft 504 kts 39°
2026-04-25 12:56 23.48754 120.05228 33053 ft 504 kts 39°
2026-04-25 12:57 23.53892 120.10533 33044 ft 504 kts 39°
2026-04-25 12:57 23.58942 120.15754 33046 ft 504 kts 39°
2026-04-25 12:58 23.64030 120.21013 33045 ft 504 kts 39°
2026-04-25 12:58 23.69115 120.26264 33047 ft 504 kts 39°
2026-04-25 12:59 23.74215 120.31543 33047 ft 505 kts 39°
2026-04-25 12:59 23.79298 120.36817 33042 ft 505 kts 39°
2026-04-25 13:00 23.83532 120.41220 33041 ft 505 kts 39°
2026-04-25 13:00 23.89468 120.47393 33038 ft 505 kts 39°
2026-04-25 13:01 23.94544 120.52697 33044 ft 505 kts 40°
2026-04-25 13:01 23.99598 120.58027 33056 ft 505 kts 40°
2026-04-25 13:02 24.04670 120.63388 33058 ft 506 kts 40°
2026-04-25 13:02 24.09714 120.68723 33065 ft 506 kts 40°
2026-04-25 13:03 24.14783 120.74086 33065 ft 506 kts 40°
2026-04-25 13:03 24.19842 120.79440 33069 ft 507 kts 40°
2026-04-25 13:04 24.24908 120.84813 33071 ft 507 kts 40°
2026-04-25 13:04 24.29987 120.90212 33074 ft 507 kts 40°
2026-04-25 13:05 24.35054 120.95602 33089 ft 508 kts 40°
2026-04-25 13:05 24.40104 121.00985 33084 ft 507 kts 41°
2026-04-25 13:06 24.44663 121.06817 33102 ft 509 kts 49°
2026-04-25 13:06 24.49107 121.12937 33090 ft 506 kts 50°
2026-04-25 13:07 24.53502 121.18987 33110 ft 507 kts 49°
2026-04-25 13:07 24.57854 121.25004 33105 ft 507 kts 49°
2026-04-25 13:08 24.62269 121.31124 33092 ft 507 kts 49°
2026-04-25 13:08 24.66624 121.37155 33074 ft 507 kts 49°
2026-04-25 13:09 24.71042 121.43269 33073 ft 508 kts 50°
2026-04-25 13:09 24.75400 121.49315 33066 ft 507 kts 50°
2026-04-25 13:10 24.79782 121.55406 33057 ft 508 kts 50°
2026-04-25 13:10 24.84162 121.61501 33062 ft 509 kts 50°
2026-04-25 13:11 24.88541 121.67605 33070 ft 509 kts 50°
2026-04-25 13:11 24.93032 121.73674 33079 ft 509 kts 47°
2026-04-25 13:12 24.97706 121.79540 33063 ft 510 kts 46°
2026-04-25 13:12 25.01653 121.84430 33063 ft 510 kts 46°
2026-04-25 13:13 25.07071 121.91282 33065 ft 512 kts 47°
2026-04-25 13:13 25.11717 121.97259 33062 ft 512 kts 47°
2026-04-25 13:14 25.16331 122.03218 33065 ft 513 kts 47°
2026-04-25 13:14 25.20958 122.09221 33045 ft 513 kts 48°
2026-04-25 13:15 25.25587 122.15241 33056 ft 514 kts 48°
2026-04-25 13:15 25.30229 122.21282 33055 ft 515 kts 48°
2026-04-25 13:16 25.34869 122.27321 33058 ft 515 kts 48°
2026-04-25 13:16 25.39512 122.33359 33061 ft 516 kts 48°
2026-04-25 13:17 25.44145 122.39400 33067 ft 516 kts 48°
2026-04-25 13:17 25.48801 122.45492 33070 ft 517 kts 48°
2026-04-25 13:18 25.53438 122.51551 33068 ft 517 kts 48°
2026-04-25 13:18 25.58119 122.57621 33070 ft 519 kts 48°
2026-04-25 13:19 25.60485 122.60690 33189 ft 524 kts 48°
2026-04-25 13:19 25.62856 122.63773 33369 ft 526 kts 48°
2026-04-25 13:19 25.65212 122.66839 33620 ft 527 kts 48°
2026-04-25 13:19 25.66026 122.67899 33705 ft 527 kts 48°
2026-04-25 13:20 25.69975 122.73048 34126 ft 527 kts 48°
2026-04-25 13:20 25.72311 122.76103 34338 ft 527 kts 48°
2026-04-25 13:20 25.74714 122.79249 34566 ft 527 kts 48°
2026-04-25 13:20 25.77082 122.82349 34786 ft 527 kts 48°
2026-04-25 13:21 25.79455 122.85451 34987 ft 527 kts 48°
2026-04-25 13:21 25.81800 122.88514 35065 ft 527 kts 48°
2026-04-25 13:21 25.86536 122.94715 35080 ft 527 kts 48°
2026-04-25 13:22 25.91282 123.00948 35077 ft 527 kts 48°
2026-04-25 13:23 25.98363 123.10254 35077 ft 527 kts 48°
2026-04-25 13:23 26.03135 123.16537 35082 ft 527 kts 48°
2026-04-25 13:24 26.07832 123.22733 35086 ft 528 kts 48°
2026-04-25 13:24 26.12557 123.28965 35084 ft 528 kts 48°
2026-04-25 13:25 26.16525 123.34219 35085 ft 528 kts 49°
2026-04-25 13:25 26.22014 123.41501 35090 ft 529 kts 49°
2026-04-25 13:26 26.26728 123.47760 35090 ft 529 kts 49°
2026-04-25 13:26 26.31462 123.54038 35091 ft 529 kts 49°
2026-04-25 13:27 26.36195 123.60322 35090 ft 529 kts 49°
2026-04-25 13:27 26.40915 123.66621 35098 ft 530 kts 49°
2026-04-25 13:28 26.44888 123.71928 35098 ft 530 kts 49°
2026-04-25 13:28 26.49587 123.78211 35100 ft 530 kts 49°
2026-04-25 13:29 26.54314 123.84530 35097 ft 530 kts 49°
2026-04-25 13:29 26.59043 123.90842 35100 ft 531 kts 49°
2026-04-25 13:30 26.66118 124.00351 35098 ft 531 kts 49°
2026-04-25 13:31 26.73221 124.09859 35099 ft 531 kts 49°
2026-04-25 13:31 26.77971 124.16205 35098 ft 532 kts 49°
2026-04-25 13:32 26.82727 124.22573 35098 ft 532 kts 49°
2026-04-25 13:32 26.87459 124.28941 35098 ft 532 kts 49°
2026-04-25 13:33 26.92177 124.35296 35097 ft 533 kts 49°
2026-04-25 13:33 26.96932 124.41698 35100 ft 533 kts 49°
2026-04-25 13:34 27.01670 124.48096 35104 ft 533 kts 49°
2026-04-25 13:34 27.06408 124.54489 35103 ft 533 kts 49°
2026-04-25 13:35 27.11161 124.60911 35104 ft 533 kts 49°
2026-04-25 13:35 27.15893 124.67325 35102 ft 534 kts 49°
2026-04-25 13:36 27.20617 124.73732 35101 ft 534 kts 49°
2026-04-25 13:36 27.25347 124.80157 35107 ft 534 kts 49°
2026-04-25 13:37 27.30058 124.86577 35101 ft 534 kts 49°
2026-04-25 13:37 27.34817 124.93068 35103 ft 534 kts 49°
2026-04-25 13:38 27.39551 124.99520 35105 ft 534 kts 49°
2026-04-25 13:38 27.44252 125.05902 35105 ft 535 kts 49°
2026-04-25 13:39 27.49062 125.12373 35102 ft 535 kts 49°
2026-04-25 13:39 27.53813 125.18753 35104 ft 535 kts 49°
2026-04-25 13:40 27.58573 125.25190 35103 ft 535 kts 49°
2026-04-25 13:40 27.63323 125.31648 35104 ft 535 kts 49°
2026-04-25 13:41 27.68096 125.38147 35106 ft 535 kts 49°
2026-04-25 13:41 27.72817 125.44546 35103 ft 535 kts 49°
2026-04-25 13:42 27.77584 125.51019 35107 ft 535 kts 49°
2026-04-25 13:42 27.82322 125.57492 35107 ft 535 kts 49°
2026-04-25 13:43 27.87050 125.63952 35098 ft 535 kts 49°
2026-04-25 13:43 27.91803 125.70459 35101 ft 535 kts 49°
2026-04-25 13:44 27.96554 125.76963 35107 ft 535 kts 49°
2026-04-25 13:44 28.01290 125.83465 35091 ft 535 kts 49°
2026-04-25 13:45 28.06021 125.89971 35094 ft 535 kts 49°
2026-04-25 13:45 28.10733 125.96460 35092 ft 535 kts 49°
2026-04-25 13:46 28.15459 126.02974 35093 ft 536 kts 49°
2026-04-25 13:46 28.20204 126.09522 35096 ft 536 kts 50°
2026-04-25 13:47 28.24918 126.16039 35092 ft 536 kts 49°
2026-04-25 13:47 28.29655 126.22599 35097 ft 536 kts 50°
2026-04-25 13:48 28.34364 126.29141 35091 ft 536 kts 50°
2026-04-25 13:48 28.39083 126.35683 35093 ft 536 kts 50°
2026-04-25 13:49 28.43804 126.42245 35083 ft 536 kts 50°
2026-04-25 13:49 28.48518 126.48818 35084 ft 536 kts 50°
2026-04-25 13:50 28.53216 126.55385 35088 ft 536 kts 50°
2026-04-25 13:50 28.57940 126.62000 35090 ft 537 kts 50°
2026-04-25 13:51 28.62644 126.68572 35084 ft 537 kts 50°
2026-04-25 13:51 28.67367 126.75178 35085 ft 537 kts 50°
2026-04-25 13:52 28.72071 126.81794 35080 ft 537 kts 50°
2026-04-25 13:52 28.76754 126.88393 35076 ft 537 kts 50°
2026-04-25 13:53 28.81457 126.95011 35075 ft 537 kts 50°
2026-04-25 13:53 28.86151 127.01625 35076 ft 537 kts 50°
2026-04-25 13:54 28.90853 127.08282 35075 ft 538 kts 50°
2026-04-25 13:54 28.95547 127.14928 35074 ft 538 kts 50°
2026-04-25 13:55 29.00251 127.21587 35076 ft 538 kts 50°
2026-04-25 13:55 29.04943 127.28260 35071 ft 538 kts 50°
2026-04-25 13:56 29.09629 127.34934 35067 ft 538 kts 50°
2026-04-25 13:56 29.14313 127.41612 35066 ft 538 kts 50°
2026-04-25 13:57 29.18980 127.48274 35064 ft 538 kts 50°
2026-04-25 13:57 29.23666 127.54957 35066 ft 539 kts 50°
2026-04-25 13:58 29.28368 127.61690 35064 ft 539 kts 50°
2026-04-25 13:58 29.33044 127.68402 35047 ft 539 kts 50°
2026-04-25 13:59 29.37709 127.75101 35050 ft 539 kts 50°
2026-04-25 13:59 29.42384 127.81823 35046 ft 540 kts 50°
2026-04-25 14:00 29.46283 127.87436 35052 ft 540 kts 50°
2026-04-25 14:00 29.51719 127.95295 35045 ft 540 kts 50°
2026-04-25 14:01 29.56399 128.02074 35048 ft 540 kts 50°
2026-04-25 14:01 29.61074 128.08834 35050 ft 541 kts 50°
2026-04-25 14:02 29.65737 128.15585 35056 ft 541 kts 50°
2026-04-25 14:02 29.70434 128.22386 35048 ft 541 kts 50°
2026-04-25 14:03 29.75123 128.29199 35043 ft 541 kts 50°
2026-04-25 14:03 29.79792 128.36006 35038 ft 541 kts 50°
2026-04-25 14:04 29.84424 128.42767 35043 ft 542 kts 51°
2026-04-25 14:04 29.89083 128.49583 35049 ft 542 kts 51°
2026-04-25 14:05 29.93746 128.56403 35051 ft 542 kts 51°
2026-04-25 14:05 29.98416 128.63255 35049 ft 542 kts 51°
2026-04-25 14:06 30.03064 128.70077 35045 ft 543 kts 51°
2026-04-25 14:06 30.07743 128.76954 35048 ft 543 kts 51°
2026-04-25 14:07 30.12377 128.83783 35049 ft 543 kts 51°
2026-04-25 14:07 30.17042 128.90678 35050 ft 543 kts 51°
2026-04-25 14:08 30.21672 128.97532 35054 ft 543 kts 51°
2026-04-25 14:08 30.26339 129.04433 35057 ft 543 kts 51°
2026-04-25 14:09 30.30975 129.11310 35063 ft 543 kts 51°
2026-04-25 14:09 30.35609 129.18209 35072 ft 544 kts 51°
2026-04-25 14:10 30.40256 129.25117 35065 ft 544 kts 51°
2026-04-25 14:10 30.44906 129.32041 35061 ft 545 kts 51°
2026-04-25 14:11 30.48779 129.37828 35062 ft 545 kts 51°
2026-04-25 14:11 30.54212 129.45973 35059 ft 546 kts 51°
2026-04-25 14:12 30.58069 129.51756 35059 ft 546 kts 51°
2026-04-25 14:12 30.62751 129.58791 35060 ft 547 kts 51°
2026-04-25 14:13 30.67403 129.65789 35064 ft 547 kts 51°
2026-04-25 14:13 30.72019 129.72739 35067 ft 548 kts 51°
2026-04-25 14:14 30.76672 129.79767 35069 ft 548 kts 51°
2026-04-25 14:14 30.81305 129.86781 35071 ft 548 kts 51°
2026-04-25 14:15 30.85763 129.93981 35075 ft 548 kts 59°
2026-04-25 14:15 30.89774 130.01528 35076 ft 548 kts 59°
2026-04-25 14:16 30.93791 130.09097 35079 ft 549 kts 59°
2026-04-25 14:16 30.97788 130.16627 35074 ft 549 kts 59°
2026-04-25 14:17 31.01809 130.24216 35073 ft 549 kts 59°
2026-04-25 14:17 31.05820 130.31806 35075 ft 549 kts 59°
2026-04-25 14:18 31.09816 130.39387 35076 ft 549 kts 59°
2026-04-25 14:18 31.13814 130.46994 35081 ft 549 kts 59°
2026-04-25 14:19 31.17814 130.54613 35070 ft 549 kts 59°
2026-04-25 14:19 31.21795 130.62204 35079 ft 549 kts 59°
2026-04-25 14:20 31.25780 130.69809 35086 ft 549 kts 59°
2026-04-25 14:20 31.29753 130.77451 35081 ft 549 kts 59°
2026-04-25 14:21 31.33716 130.85061 35087 ft 549 kts 59°
2026-04-25 14:21 31.37704 130.92698 35090 ft 549 kts 59°
2026-04-25 14:22 31.41668 131.00343 35100 ft 549 kts 59°
2026-04-25 14:22 31.45621 131.07987 35105 ft 549 kts 59°
2026-04-25 14:23 31.49574 131.15618 35105 ft 550 kts 59°
2026-04-25 14:23 31.53546 131.23308 35107 ft 550 kts 59°
2026-04-25 14:24 31.57470 131.30934 35099 ft 550 kts 59°
2026-04-25 14:24 31.61450 131.38677 35107 ft 551 kts 59°
2026-04-25 14:25 31.65405 131.46394 35108 ft 551 kts 59°
2026-04-25 14:25 31.69310 131.54040 35114 ft 552 kts 59°
2026-04-25 14:26 31.73254 131.61788 35115 ft 552 kts 59°
2026-04-25 14:26 31.77195 131.69536 35114 ft 552 kts 59°
2026-04-25 14:27 31.81131 131.77271 35114 ft 552 kts 59°
2026-04-25 14:27 31.85093 131.85070 35114 ft 552 kts 59°
2026-04-25 14:28 31.88992 131.92762 35115 ft 552 kts 59°
2026-04-25 14:28 31.92913 132.00523 35115 ft 552 kts 59°
2026-04-25 14:29 31.96827 132.08298 35117 ft 552 kts 59°
2026-04-25 14:29 32.00736 132.16079 35117 ft 552 kts 59°
2026-04-25 14:30 32.04642 132.23856 35118 ft 552 kts 59°
2026-04-25 14:30 32.10532 132.35532 35116 ft 552 kts 55°
2026-04-25 14:31 32.15515 132.42378 35113 ft 545 kts 37°
2026-04-25 14:31 32.21394 132.47989 35118 ft 543 kts 33°
2026-04-25 14:32 32.27278 132.53550 35120 ft 544 kts 33°
2026-04-25 14:32 32.33190 132.59165 35124 ft 544 kts 34°
2026-04-25 14:33 32.39093 132.64775 35132 ft 544 kts 33°
2026-04-25 14:33 32.45004 132.70395 35130 ft 545 kts 33°
2026-04-25 14:34 32.50888 132.76001 35134 ft 545 kts 34°
2026-04-25 14:34 32.56794 132.81644 35140 ft 545 kts 34°
2026-04-25 14:35 32.62680 132.87276 35143 ft 546 kts 33°
2026-04-25 14:35 32.68609 132.92952 35148 ft 546 kts 34°
2026-04-25 14:36 32.74436 132.98700 35143 ft 550 kts 40°
2026-04-25 14:36 32.77025 133.02042 34617 ft 556 kts 50°
2026-04-25 14:36 32.79281 133.05775 34047 ft 555 kts 54°
2026-04-25 14:37 32.81487 133.09539 33485 ft 551 kts 53°
2026-04-25 14:37 32.83672 133.13250 32959 ft 547 kts 53°
2026-04-25 14:37 32.85871 133.16966 32425 ft 544 kts 53°
2026-04-25 14:37 32.88031 133.20602 31903 ft 541 kts 53°
2026-04-25 14:38 32.90233 133.24301 31369 ft 538 kts 53°
2026-04-25 14:38 32.92358 133.27878 30860 ft 536 kts 53°
2026-04-25 14:38 32.94532 133.31550 30334 ft 534 kts 53°
2026-04-25 14:38 32.96632 133.35103 29785 ft 531 kts 53°
2026-04-25 14:39 32.98751 133.38694 29306 ft 526 kts 53°
2026-04-25 14:39 33.00828 133.42222 28831 ft 521 kts 53°
2026-04-25 14:39 33.02897 133.45745 28379 ft 515 kts 53°
2026-04-25 14:39 33.04946 133.49235 27980 ft 508 kts 53°
2026-04-25 14:40 33.06947 133.52646 27572 ft 502 kts 53°
2026-04-25 14:40 33.08942 133.56043 27111 ft 497 kts 53°
2026-04-25 14:40 33.10924 133.59419 26697 ft 491 kts 53°
2026-04-25 14:40 33.12865 133.62725 26309 ft 485 kts 53°
2026-04-25 14:41 33.14781 133.65992 25929 ft 479 kts 53°
2026-04-25 14:41 33.16672 133.69218 25391 ft 469 kts 53°
2026-04-25 14:41 33.18528 133.72391 24722 ft 460 kts 53°
2026-04-25 14:41 33.20338 133.75490 24115 ft 450 kts 53°
2026-04-25 14:42 33.22090 133.78493 23538 ft 438 kts 54°
2026-04-25 14:42 33.22687 133.79517 23309 ft 434 kts 54°
2026-04-25 14:42 33.25473 133.84299 22572 ft 408 kts 54°
2026-04-25 14:42 33.27071 133.87043 22120 ft 395 kts 54°
2026-04-25 14:43 33.28614 133.89693 21703 ft 382 kts 54°
2026-04-25 14:43 33.30098 133.92243 21298 ft 370 kts 54°
2026-04-25 14:43 33.31544 133.94733 20900 ft 359 kts 54°
2026-04-25 14:43 33.32966 133.97185 20514 ft 356 kts 54°
2026-04-25 14:44 33.34363 133.99589 20131 ft 355 kts 54°
2026-04-25 14:44 33.35782 134.02031 19732 ft 355 kts 54°
2026-04-25 14:44 33.37181 134.04437 19342 ft 355 kts 54°
2026-04-25 14:44 33.38597 134.06870 18942 ft 355 kts 54°
2026-04-25 14:45 33.39989 134.09271 18551 ft 355 kts 54°
2026-04-25 14:45 33.41400 134.11711 18123 ft 355 kts 54°
2026-04-25 14:45 33.42811 134.14157 17717 ft 355 kts 54°
2026-04-25 14:45 33.44192 134.16552 17329 ft 353 kts 54°
2026-04-25 14:46 33.45590 134.18977 16924 ft 351 kts 54°
2026-04-25 14:46 33.46961 134.21358 16552 ft 350 kts 55°
2026-04-25 14:46 33.48342 134.23752 16153 ft 348 kts 54°
2026-04-25 14:46 33.49741 134.26174 15775 ft 348 kts 54°
2026-04-25 14:47 33.51093 134.28514 15391 ft 347 kts 54°
2026-04-25 14:47 33.51555 134.29314 15269 ft 347 kts 54°
2026-04-25 14:47 33.53836 134.33279 14622 ft 345 kts 55°
2026-04-25 14:47 33.55208 134.35669 14231 ft 344 kts 55°
2026-04-25 14:48 33.56540 134.37984 13838 ft 343 kts 55°
2026-04-25 14:48 33.57922 134.40393 13304 ft 345 kts 55°
2026-04-25 14:48 33.59250 134.42715 12914 ft 342 kts 55°
2026-04-25 14:48 33.60587 134.45041 12534 ft 338 kts 53°
2026-04-25 14:49 33.62223 134.47036 12300 ft 329 kts 35°
2026-04-25 14:49 33.64175 134.48311 12275 ft 316 kts 21°
2026-04-25 14:49 33.66218 134.49303 12267 ft 314 kts 20°
2026-04-25 14:49 33.68232 134.50254 12271 ft 313 kts 19°
2026-04-25 14:50 33.70267 134.51200 12275 ft 312 kts 19°
2026-04-25 14:50 33.72290 134.52134 12272 ft 312 kts 19°
2026-04-25 14:50 33.74317 134.53070 12277 ft 312 kts 19°
2026-04-25 14:50 33.76340 134.54007 12272 ft 312 kts 19°
2026-04-25 14:51 33.78356 134.54941 12274 ft 311 kts 19°
2026-04-25 14:51 33.80384 134.55880 12274 ft 311 kts 19°
2026-04-25 14:51 33.82402 134.56811 12273 ft 311 kts 19°
2026-04-25 14:51 33.84418 134.57742 12278 ft 311 kts 19°
2026-04-25 14:52 33.86446 134.58681 12271 ft 311 kts 19°
2026-04-25 14:52 33.88468 134.59622 12270 ft 311 kts 20°
2026-04-25 14:52 33.90483 134.60562 12268 ft 311 kts 20°
2026-04-25 14:52 33.91167 134.60882 12269 ft 311 kts 20°
2026-04-25 14:53 33.94516 134.62446 12272 ft 311 kts 20°
2026-04-25 14:53 33.96526 134.63385 12268 ft 311 kts 20°
2026-04-25 14:53 33.98541 134.64330 12271 ft 310 kts 20°
2026-04-25 14:53 34.00556 134.65272 12269 ft 310 kts 20°
2026-04-25 14:54 34.02567 134.66210 12273 ft 310 kts 20°
2026-04-25 14:54 34.04571 134.67144 12270 ft 310 kts 20°
2026-04-25 14:54 34.06585 134.68083 12145 ft 310 kts 20°
2026-04-25 14:54 34.08596 134.69023 11730 ft 310 kts 20°
2026-04-25 14:55 34.10609 134.69964 11355 ft 309 kts 20°
2026-04-25 14:55 34.12598 134.70903 10963 ft 308 kts 23°
2026-04-25 14:55 34.14446 134.72235 10581 ft 308 kts 39°
2026-04-25 14:55 34.15903 134.74103 10191 ft 306 kts 56°
2026-04-25 14:56 34.16967 134.76318 9759 ft 306 kts 62°
2026-04-25 14:56 34.17648 134.77827 9482 ft 305 kts 62°
2026-04-25 14:56 34.18986 134.80782 8937 ft 302 kts 62°
2026-04-25 14:56 34.19654 134.82255 8662 ft 300 kts 62°
2026-04-25 14:57 34.20952 134.85117 8116 ft 283 kts 62°
2026-04-25 14:57 34.21885 134.87173 7721 ft 272 kts 62°
2026-04-25 14:57 34.22776 134.89140 7336 ft 262 kts 63°
2026-04-25 14:57 34.23628 134.91025 6975 ft 252 kts 63°
2026-04-25 14:58 34.24187 134.92265 6713 ft 246 kts 63°
2026-04-25 14:58 34.25001 134.94042 6340 ft 240 kts 59°
2026-04-25 14:58 34.25983 134.95636 5973 ft 234 kts 52°
2026-04-25 14:58 34.27336 134.97606 5515 ft 225 kts 52°
2026-04-25 14:59 34.27990 134.98565 5289 ft 220 kts 52°
2026-04-25 14:59 34.28950 134.99983 4949 ft 215 kts 52°
2026-04-25 14:59 34.29888 135.01371 4608 ft 209 kts 53°
2026-04-25 14:59 34.30807 135.02732 4283 ft 206 kts 53°
2026-04-25 15:00 34.31706 135.04063 3920 ft 204 kts 53°
2026-04-25 15:00 34.32597 135.05384 3468 ft 202 kts 53°
2026-04-25 15:00 34.33485 135.06700 2941 ft 201 kts 52°
2026-04-25 15:00 34.34334 135.07957 2670 ft 193 kts 52°
2026-04-25 15:01 34.35157 135.09178 2411 ft 181 kts 52°
2026-04-25 15:01 34.35921 135.10312 2176 ft 166 kts 52°
2026-04-25 15:01 34.36624 135.11361 1939 ft 157 kts 52°
2026-04-25 15:01 34.37304 135.12374 1721 ft 152 kts 52°
2026-04-25 15:02 34.37970 135.13360 1533 ft 151 kts 52°
2026-04-25 15:02 34.38643 135.14350 1365 ft 150 kts 51°
2026-04-25 15:02 34.39288 135.15315 1151 ft 149 kts 53°
2026-04-25 15:02 34.39931 135.16290 936 ft 148 kts 51°
2026-04-25 15:03 34.40596 135.17267 747 ft 147 kts 51°
2026-04-25 15:03 34.41231 135.18209 570 ft 147 kts 51°
2026-04-25 15:03 34.41870 135.19164 394 ft 145 kts 50°
2026-04-25 15:03 34.42500 135.20094 185 ft 145 kts 51°
2026-04-25 15:04 34.43138 135.21040 38 ft 137 kts 51°
2026-04-25 15:04 34.43680 135.21818 27 ft 98 kts 54°
2026-04-25 15:04 34.43994 135.22306 30 ft 49 kts 51°
2026-04-25 15:04 34.44104 135.22470 33 ft 9 kts 52°
2026-04-25 15:05 34.44156 135.22550 31 ft 16 kts 52°
2026-04-25 15:05 34.44229 135.22668 30 ft 18 kts 54°
2026-04-25 15:05 34.44305 135.22786 30 ft 16 kts 54°
2026-04-25 15:06 34.44384 135.23054 31 ft 9 kts 80°
2026-04-25 15:06 34.44389 135.23109 31 ft 6 kts 96°
2026-04-25 15:06 34.44367 135.23148 29 ft 6 kts 147°
2026-04-25 15:06 34.44328 135.23140 30 ft 6 kts 208°
2026-04-25 15:07 34.44264 135.23058 28 ft 20 kts 232°
2026-04-25 15:07 34.44176 135.22928 30 ft 20 kts 232°
2026-04-25 15:07 34.44092 135.22800 31 ft 20 kts 232°
2026-04-25 15:07 34.44006 135.22672 33 ft 19 kts 230°
2026-04-25 15:08 34.43938 135.22576 34 ft 11 kts 228°
2026-04-25 15:08 34.43889 135.22504 33 ft 11 kts 229°
2026-04-25 15:08 34.43824 135.22508 31 ft 11 kts 141°
2026-04-25 15:08 34.43766 135.22564 30 ft 11 kts 142°
2026-04-25 15:09 34.43713 135.22616 30 ft 9 kts 142°
2026-04-25 15:09 34.43664 135.22662 30 ft 13 kts 141°
2026-04-25 15:09 34.43509 135.22818 31 ft 14 kts 136°
2026-04-25 15:10 34.43486 135.22915 31 ft 13 kts 79°
2026-04-25 15:10 34.43482 135.22973 31 ft 4 kts 121°
2026-04-25 15:10 34.43495 135.23035 32 ft 5 kts 50°
2026-04-25 15:11 34.43511 135.23057 33 ft 2 kts 48°
2026-04-25 15:11 34.43515 135.23062 33 ft 0 kts 48°